Location: *
(38.9555°S, 57.3572°E)
Time: 01:46:20
(UTC+00:00)

Cosmos 2219 Rocket - Pass Details

Date: 15 July 2020
Orbit: 827 x 847 km, 71.0° (Epoch: 06 August)

Event Time Altitude Azimuth Distance (km) Brightness Sun altitude
Rises 13:58:33 0° 208° (SSW) 3,411 5.5 -9.9°
Reaches altitude 10° 14:01:03 10° 212° (SSW) 2,468 4.8 -10.4°
Maximum altitude 14:06:33 54° 288° (WNW) 1,014 3.1 -11.4°
Drops below altitude 10° 14:11:57 10° 3° (N) 2,430 4.8 -12.4°
Sets 14:14:25 0° 8° (N) 3,355 5.4 -12.8°
